Retour au catalogue

QIANFAN-77

ActifCommunicationsPO
NORAD 63163·PAYLOAD·🇨🇳 China

Lancé Mar 11, 2025 depuis Wenchang Space Launch Site

Loading…

Prochains Passages (prochaines 24 heures)

TLE

FraisSource: Space-Track

Époque: Sep 14, 2026, 12:52 UTC

1 63163U 25046E   26257.53676732  .00000095  00000-0  59308-4 0  9990
2 63163  88.9656 287.2295 0012743 304.4077  55.5895 13.96246157 86937

Suivez QIANFAN-77 en temps réel avec AllMySat

Download on the App Store